Tracking 19720 objects as of 26-Jun-2019
HD Live streaming from Space Station
objects crossing your sky now

SL-14 DEB

Track SL-14 DEB now!
10-day predictions


NORAD ID: 25187
Int'l Code: 1987-068N
Perigee: 817.8 km
Apogee: 832.6 km
Inclination: 82.5 °
Period: 101.3 minutes
Semi major axis: 7196 km
RCS: 0.0093 m2 (small)
Launch date: August 18, 1987
Source: Commonwealth of Independent States (former USSR) (CIS)
Launch site: PLESETSK MISSILE AND SPACE COMPLEX (PKMTR)

Note: This is SATELLITE DEBRIS
aabbcc
Your satellite tracking list
Your tracking list is empty




NASA's NSSDC Master Catalog

Two Line Element Set (TLE):
1 25187U 87068N   19176.32967352  .00000789  00000-0  34887-3 0  9990
2 25187  82.5497 283.9488 0010259 346.9794  13.1121 14.22165569 95678
Source of the keplerian elements: AFSPC